Flag for Germany Weather past 2 weeks in Dannenberg, Lower Saxony, Germany

Now
64 °F

Partly sunny.


Feels Like: 64 °F
Forecast: 51 / 64 °F
Wind: 16 mph from Southwest

Location: Mecklenburg-Vorpommern - Parchim

Current Time: Sep 2, 2015 at 12:47:29 PM

Latest Report: Sep 2, 2015 at 12:20 PM


Visibility: N/A

Pressure: 29.95 "Hg

Humidity: 64%

Dew point: 52 °F

Location of DannenbergLocation

Historic Weather in Dannenberg — Graph

°F

Dannenberg temperature yesterday

Maximum temperature yesterday: 72 °F (at 9:20 AM)
Minimum temperature yesterday: 63 °F (at 5:20 PM)
Average temperature yesterday: 68 °F

Past Weeks' High & Low Weather Summary

 TemperatureHumidityPressure
High84 °F (Aug 31, 5:20 PM)100% (Aug 19, 6:20 AM)30.30 "Hg (Aug 19, 6:20 AM)
Low45 °F (Aug 29, 6:50 AM)26% (Aug 21, 3:50 PM)29.68 "Hg (Aug 24, 3:20 PM)
Average67 °F70%30.00 "Hg
* Reported Aug 18 11:20 AM — Sep 2 11:50 AM, Dannenberg, Weather by CustomWeather, © 2015

Note: Actual official high and low records may vary slightly from our data, if they occured in-between our weather recording intervals... More about our weather records

Advertising

Dannenberg weather history for previous 24 hours

 ConditionsComfort  
Time TempWeatherWind HumidityBarometerVisibility
11:50 AM
Wed, Sep 2
63 °FScattered clouds.16 mph68%29.95 "HgN/A
11:20 AM61 °FScattered clouds.15 mph68%29.95 "HgN/A
10:50 AM61 °FPartly sunny.17 mph72%29.95 "HgN/A
10:20 AM59 °FPartly sunny.14 mph77%29.95 "HgN/A
9:50 AM57 °FPartly sunny.15 mph82%29.95 "HgN/A
9:20 AM57 °FPartly sunny.14 mph82%29.95 "HgN/A
8:50 AM55 °FPartly sunny.13 mph88%29.95 "HgN/A
8:20 AM54 °FPartly sunny.12 mph94%29.95 "HgN/A
7:50 AM54 °FPartly sunny.13 mph94%29.95 "HgN/A
7:20 AM54 °FPassing clouds.10 mph94%29.92 "HgN/A
6:50 AM52 °FPassing clouds.10 mph94%29.92 "HgN/A
6:50 PM
Tue, Sep 1
63 °FOvercast.13 mph83%29.80 "HgN/A
6:20 PM63 °FPartly sunny.8 mph83%29.80 "HgN/A
5:50 PM63 °FPartly sunny.10 mph83%29.80 "HgN/A
5:20 PM63 °FPartly sunny.13 mph83%29.80 "HgN/A
4:50 PM64 °FLight rain. Partly sunny.13 mph78%29.80 "HgN/A
4:20 PM64 °FPartly sunny.12 mph78%29.77 "HgN/A
3:50 PM64 °FLight rain. Partly sunny.13 mph78%29.77 "HgN/A
3:20 PM68 °FBroken clouds.17 mph73%29.77 "HgN/A
2:50 PM68 °FPartly sunny.15 mph73%29.74 "HgN/A
2:20 PM70 °FPartly sunny.14 mph73%29.74 "HgN/A
1:50 PM70 °FPartly sunny.15 mph73%29.74 "HgN/A
1:20 PM72 °FBroken clouds.14 mph69%29.74 "HgN/A
12:50 PM72 °FPartly sunny.15 mph69%29.71 "HgN/A
12:20 PM72 °FPartly sunny.13 mph69%29.71 "HgN/A
Weather by CustomWeather, © 2015

See weather overviewHow to use our weather pages